www.pogodaiklimat.ru

Погода и климат >> Архив погоды >> Россия >> Якутия >> Алдан


АРХИВ ПОГОДЫ в Алдане

Время (UTC), дата Ветер
(напр.,м/с)
 
Видим.   Явления Облачность Т
(С)
Тd
(С)
f
(%)
Тe
(С)
Тes
(С)
Комфортность P
(гПа)
Po
(гПа)
Тmin
(С)
Tmax
(С)
R
(мм)
R24
(мм)
S
(см)
18 17.06 Ю 1 50 км 6/0
[Ac trans Ci fib]
+9.9 +3.0 62 +10 +10 1010.5 931.7
21 17.06 ЮЗ 1 50 км 6/0
[Ci fib]
+10.2 +4.4 67 +10 +12 1009.9 931.3
00 18.06 СЗ 1 50 км ясно +20.4 +6.6 41 +22 +32 комфорт 1006.3 930.6 +8.5
03 18.06 С 3
{10}
50 км 3/3 1000 м
[Cu hum]
+23.6 +5.7 31 +24 +32 комфорт 1004.1 929.3
06 18.06 С 4-11
{12}
50 км 5/5 1000 м
[Cu hum]
+25.8 +2.3 22 +25 +29 комфорт 1001.4 927.4
09 18.06 С 3
{13}
50 км 3/3 1000 м
[Cu hum]
+25.4 +2.9 23 +24 +27 комфорт 1001.4 927.3
12 18.06 штиль 0 50 км 3/3 1000 м
[Cu hum Ci fib]
+22.0 +4.2 31 +22 +22 комфорт 1003.1 928.0 +27.0
15 18.06 штиль 0 50 км ясно +13.3 +7.1 66 +13 +13 1006.7 929.2
18 18.06 штиль 0 50 км ясно +9.1 +5.3 77 +8 +8 1009.1 930.3
21 18.06 штиль 0 50 км ясно +10.0 +6.4 78 +9 +11 1009.7 931.1
00 19.06 СВ 2 50 км 1/1 1000 м
[Cu hum]
+17.2 +5.7 47 +18 +25 1008.6 931.9 +6.7
03 19.06 СВ 3 50 км 4/3 1000 м
[Cu hum Ci fib]
+20.6 +4.9 36 +22 +30 комфорт 1007.9 932.1
06 19.06 СВ 2 50 км 5/3 1000 м
[Cu hum Ac trans]
+22.6 +5.8 34 +23 +30 комфорт 1006.6 931.4
09 19.06 СВ 2 50 км 6/4 1000 м
[Cu hum Ci fib]
+22.2 +5.8 34 +23 +25 комфорт 1006.0 930.8
12 19.06 штиль 0 50 км 6/3 1000 м
[Sc Ci fib]
+17.4 +8.2 55 +17 +18 1007.9 931.4 +26.7
15 19.06 Ю 1 50 км 4/0
[Ac trans Ci fib]
+11.2 +6.3 72 +11 +11 1010.6 932.3
18 19.06 Ю 1 50 км 3/0
[Ci fib]
+9.2 +5.0 75 +9 +9 1011.7 932.7
21 19.06 Ю 2 50 км 3/0
[Ci fib]
+10.0 +5.9 76 +9 +10 1011.8 933.0
00 20.06 З 1 50 км 3/0
[Ci fib]
+18.8 +8.2 50 +20 +30 1009.4 933.1 +7.5
03 20.06 З 2 50 км 9/3 1000 м
[Cu hum Ac trans Ci fib]
+22.5 +7.6 38 +23 +29 комфорт 1007.6 932.4
06 20.06 С 2 50 км гроза без осадков 9/8 600 м
[Cb cap Ci fib]
+21.1 +8.9 46 +22 +24 комфорт 1006.8 931.3
09 20.06 штиль 0 50 км в посл. час гроза 8/6 600 м
[Cb cap Ac trans Ci fib]
+18.7 +7.3 47 +19 +21 1008.4 932.2
12 20.06 штиль 0 50 км {гроза} 8/0
[Ac trans Ci fib]
+17.5 +8.7 56 +18 +18 1010.0 933.4 +24.1
15 20.06 Ю 1 50 км 6/0
[Ac trans Ci fib]
+11.1 +8.5 84 +11 +11 1012.2 933.7
18 20.06 Ю 1 50 км 6/0
[Ci fib]
+8.9 +6.5 85 +8 +8 1013.2 934.0
21 20.06 Ю 1 50 км 8/0
[Ac trans Ci fib]
+10.7 +7.8 82 +10 +12 1013.4 934.5
00 21.06 З 1 50 км 8/5 1000 м
[Sc Ci fib]
+16.8 +12.3 75 +18 +22 1011.6 934.8 +7.5
03 21.06 З 2 50 км 6/4 1000 м
[Cu med, cong Ci fib]
+21.4 +11.8 54 +23 +32 комфорт 1009.9 934.3
06 21.06 З 3 50 км 4/3 1000 м
[Cu med, cong Ci fib]
+23.8 +10.9 44 +25 +32 комфорт 1008.0 933.1
09 21.06 З 2 50 км 8/5 600 м
[Cb cap Ci fib]
+23.9 +10.6 43 +25 +27 комфорт 1007.7 932.9
12 21.06 штиль 0 50 км {гроза} 9/6 600 м
[Cb cap Ac trans Ci fib]
+19.1 +11.5 61 +20 +20 1010.3 934.1 +25.5
15 21.06 Ю 1 50 км 9/8 1000 м
[Sc diur, vesp Ci fib]
+14.5 +11.5 82 +15 +15 1011.2 933.8
18 21.06 Ю 1 50 км 9/6 1000 м
[Sc diur, vesp Ci fib]
+13.3 +10.6 84 +13 +13 1011.5 933.7
21 21.06 Ю 2 50 км 9/8 1000 м
[Sc Ci fib]
+14.0 +10.8 81 +13 +14 1010.8 933.3
00 22.06 ЮВ 1 50 км 9/6 1000 м
[Sc Ci fib]
+18.6 +13.1 70 +20 +24 1009.4 933.2 +12.4
03 22.06 З 1 50 км 8/6 1000 м
[Cb cap Ci fib]
+21.8 +13.3 58 +24 +31 комфорт 1007.2 931.9
06 22.06 З 2 20 км 9/8 600 м
[Cb cap Ci fib]
+23.2 +11.5 48 +26 +28 жарко 1005.1 930.4
09 22.06 ЮЗ 1 20 км в посл. час гроза {ливн. осадки} 10/8 600 м
[Cb cap Cs]
+17.4 +14.6 84 +18 +19 1006.7 930.5
12 22.06 штиль 0 20 км {гроза, ливн. осадки} 10/8 600 м
[Cb cap Cs]
+17.0 +14.8 87 +17 +17 1006.7 930.4 +25.3 0.8
15 22.06 З 1 10 км слаб. ливневой дождь 10/8 600 м
[Cb cap Cs]
+15.0 +14.3 96 +15 +15 1007.0 930.1
18 22.06 штиль 0 10 км слаб. ливневой дождь 10/10 300 м
[Cb cap]
+13.8 +13.4 97 +13 +13 1006.5 929.3
21 22.06 СЗ 1 1000 м ливневой дождь 10/10 300 м
[Cb cap]
+13.6 +13.2 97 +14 +14 1006.4 929.2
00 23.06 ЮЗ 1 10 км {ливн. осадки} 10/10 300 м
[Cb cap]
+13.8 +12.7 93 +14 +14 1006.9 929.6 +13.2 9
03 23.06 З 1 10 км 10/8 300 м
[Cb cap Cs]
+14.5 +12.9 90 +15 +18 1006.9 929.9
06 23.06 ЮЗ 2 10 км слаб. ливневой дождь 10/8 300 м
[Cb cap Cs]
+16.0 +13.3 84 +16 +18 1006.3 929.6
09 23.06 З 2 10 км гроза без осадков {ливн. осадки} 10/8 300 м
[Cb cap Cs]
+14.4 +12.2 87 +14 +15 1008.1 930.9
12 23.06 ЮЗ 1 20 км {гроза, ливн. осадки} 8/8 600 м
[Cb cap Ci fib]
+14.6 +11.4 81 +15 +15 1008.4 931.2 +17.0 1
15 23.06 ЮЗ 1 20 км 8/6 600 м
[Cb cap Ci fib]
+10.6 +9.8 95 +10 +10 1009.6 931.3
18 23.06 Ю 1 50 км 1/1 1000 м
[Cb cap]
+7.4 +6.5 94 +6 +6 1011.0 931.6
21 23.06 Ю 1 50 км 3/3 1000 м
[Cb cap Ac trans]
+10.2 +9.0 92 +10 +11 1010.2 931.7
00 24.06 З 1 50 км 3/3 1000 м
[Cu hum]
+15.0 +8.7 66 +16 +23 1008.4 931.2 +6.5
03 24.06 СЗ 1 50 км 6/4 1000 м
[Cu hum Ac trans]
+17.2 +4.6 43 +18 +26 1007.2 930.6
06 24.06 С 2 50 км 4/4 1000 м
[Cu hum]
+19.4 +3.0 34 +20 +27 1006.1 930.1
09 24.06 З 1 50 км 9/6 600 м
[Cb cap Ac trans Ci fib]
+18.0 +4.9 42 +19 +20 1006.4 930.1
12 24.06 штиль 0 20 км 10/6 600 м
[Cb cap Ac trans Cs]
+13.4 +7.0 65 +13 +13 1014.6 930.6 +20.5
15 24.06 Ю 1 20 км {ливн. осадки} 10/8 600 м
[Cb cap Cs]
+11.6 +8.3 80 +11 +11 1009.2 931.1

 

Местоположение метеостанции Алдан (Якутия, Россия): широта 58.60 долгота 125.30 высота над уровнем моря 679 м.

В архиве по умолчанию представлена погода в Алдане за последнюю неделю. Архивные данные за месяц целиком и за предыдущие месяцы, начиная с января 2011 года, Вы можете получить, выбрав интересующий диапазон дат из раскрывающегося списка и нажав кнопку "Ввод!".


*Определитесь, кто Вы:
робот инопланетянин человек

Внимание! Время в таблицах - всемирное. Для получения местного времени необходимо прибавить поправку, которая равна 9 ч.

Смотрите также архив погоды в соседних городах и на ближайших метеорологических станциях:

Погода в Томмоте (Якутия, Россия) (66 км)
Погода в Суон-Тите (Якутия, Россия) (110 км)
Погода в Канкунском (Якутия, Россия) (111 км)
Погода в Буяге (Якутия, Россия) (154 км)
Погода в Угино (Якутия, Россия) (185 км)
Погода в Нерюнгри (Якутия, Россия) (199 км)
Погода в Джикимде (Якутия, Россия) (213 км)
Погода в Исити (Якутия, Россия) (247 км)
Погода в Нагорном (Якутия, Россия) (294 км)
Погода в Учуре (Якутия, Россия) (307 км)

Пояснения к столбцам:

Ветер - указаны скорость ветра в м/с - средняя за 10 мин, порывы в срок и между сроками (в фигурных скобках) и направление, откуда дует ветер: С - северный, СВ - северо-восточный, В - восточный, ЮВ - юго-восточный, Ю - южный, ЮЗ - юго-западный, З - западный, СЗ - северо-западный.
Видимость - горизонтальная дальность видимости в метрах или километрах. При видимости от 1 до 10 км при отсутствии осадков обычно наблюдается дымка, при ухудшении видимости до 1 км и менее - туман. В сухую погоду видимость может ухудшаться дымом, пылью или мглою.
Явления - указаны атмосферные явления, наблюдавшиеся в срок или в последний час перед сроком; фигурными скобками обозначены явления, наблюдавшиеся между сроками (за 1-3 часа до срока); квадратными скобками обозначены град или гололедные отложения с указанием их диаметра в мм.
Облачность - указаны через наклонную черту общая и нижняя облачность в баллах и высота нижней границы облаков в метрах; квадратными скобками обозначены формы облаков: Ci - перистые, Cs - перисто-слоистые, Cc - перисто-кучевые, Ac - высококучевые, As - высокослоистые, Sc - слоисто-кучевые, Ns - слоисто-дождевые, Cu - кучевые, Cb - кучево-дождевые. Подробнее классификацию облаков см. в Атласе облаков (PDF).
T - Температура воздуха - температура, измеренная на высоте 2 м над землей.
Td - Температура точки росы - температура, при понижении до которой содержащийся в воздухе водяной пар достигнет насыщения.
f - Относительная влажность воздуха - влажноcть воздуха, измеренная на высоте 2 м над землей.
Te - Эффективная температура - температура, которую ощущает одетый по сезону человек в тени. Характеристика душности погоды. При расчете учитывается влияние влажности воздуха и скорости ветра на теплоощущения человека.
Tes - Эффективная температура на солнце - температура, которую ощущает человек, с поправкой на солнечный нагрев. Характеристика знойности погоды. Зависит от высоты солнца над горизонтом, облачности и скорости ветра. Ночью, в пасмурную погоду, а также при ветре 12 м/с и более поправка равна нулю.
P - Атмосферное давление - приведенное к уровню моря атмосферное давление.
Po - Атмосферное давление - измеренное на уровне метеостанции атмосферное давление.
Tmin - Минимальная температура - минимум температуры воздуха на высоте 2 м над землей.
Tmax - Максимальная температура - максимум температуры воздуха на высоте 2 м над землей.
R - Количество осадков - Количество выпавших осадков за период времени, мм. При наведении курсора мыши на число - период времени, за который выпало указанное количество осадков.
R24 - Количество осадков - Количество выпавших осадков за 24 часа, мм.
S - Снежный покров - Высота снежного покрова, см. При наведении курсора мыши на число - состояние снежного покрова и степень покрытия местности в баллах.